Tracking 29768 objects as of 3-Oct-2024
HD Live streaming from Space Station
objects crossing your sky now

SHIJIAN-15 (SJ-15)

Track SHIJIAN-15 (SJ-15) now!
10-day predictions
SHIJIAN-15 (SJ-15) is classified as:


NORAD ID: 39210
Int'l Code: 2013-037C
Perigee: 664.6 km
Apogee: 672.5 km
Inclination: 98.1 °
Period: 98.0 minutes
Semi major axis: 7039 km
RCS: Unknown
Launch date: July 19, 2013
Source: People's Republic of China (PRC)
Launch site: Taiyaun Space Center, China (TSC)

SHIJIAN 15 is a technology satellite, precise mission unknown at present.
Your satellite tracking list
Your tracking list is empty




NASA's NSSDC Master Catalog

Two Line Element Set (TLE):
1 39210U 13037C   24277.24392877  .00004456  00000-0  75273-3 0  9999
2 39210  98.0853 273.1705 0005640 341.8480  18.2523 14.69893767602906
Source of the keplerian elements: AFSPC